Menominee, MI

4:26 AM CDT on March 28, 2017 (GMT -0500)
Menominee-Marinette Twin County

Weather History for KMNM - April, 2012

Change the Weather History Date:

Monday, April 23, 2012

  Actual Average Record
Temperature  
Mean Temperature 45 °F -  
Max Temperature 60 °F 58 °F 88 °F (1980)
Min Temperature 30 °F 36 °F 23 °F (1956)
Degree Days  
Heating Degree Days 20    
Moisture  
Dew Point 16 °F    
Average Humidity 34    
Maximum Humidity 64    
Minimum Humidity 15    
Precipitation  
Precipitation 0.00 in - - ()
Sea Level Pressure  
Sea Level Pressure 29.98 in    
Wind  
Wind Speed 7 mph (North)    
Max Wind Speed 18 mph    
Max Gust Speed 28 mph    
Visibility 10 miles    
Events      
Averages and records for this station are not official NWS values.
T = Trace of Precipitation, MM = Missing Value Source: NWS Daily Summary

Daily Weather History Graph

Daily Weather History Graph

Search for Another Location

Airport or City:

Trip Planner

Search our weather history database for the weather conditions in past years. The results will help you decide how hot, cold, wet, or windy it might be!

Date:

Astronomy

Apr. 23, 2012 Rise Set
Actual Time 5:51 AM CDT 7:47 PM CDT
Civil Twilight 5:19 AM CDT 8:18 PM CDT
Nautical Twilight 4:41 AM CDT 8:57 PM CDT
Astronomical Twilight 3:58 AM CDT 9:40 PM CDT
Moon 6:56 AM CDT (4/23) 10:23 PM CDT (4/23)
Length of Visible Light 14h 59m
Length of Day
13h 55m
Waxing Crescent, 5% of the Moon is Illuminated
Apr 23
Waxing Crescent
Apr 29
First Quarter
May 5
Full
May 12
Last Quarter
May 20
New

Hourly Weather History & Observations

Time (CDT) Temp. Windchill Dew Point Humidity Pressure Visibility Wind Dir Wind Speed Gust Speed Precip Events Conditions
12:15 AM 33.8 °F - 19.4 °F 56% 30.15 in 10.0 mi Calm Calm - N/A   Clear
12:35 AM 35.6 °F 31.7 °F 19.4 °F 52% 30.14 in 10.0 mi NNW 4.6 mph - N/A   Clear
12:55 AM 35.6 °F - 19.4 °F 52% 30.14 in 10.0 mi Calm Calm - N/A   Partly Cloudy
1:15 AM 33.8 °F - 19.4 °F 56% 30.13 in 10.0 mi Calm Calm - N/A   Partly Cloudy
1:35 AM 33.8 °F - 19.4 °F 56% 30.13 in 10.0 mi Calm Calm - N/A   Partly Cloudy
1:55 AM 33.8 °F 30.8 °F 19.4 °F 56% 30.12 in 10.0 mi North 3.5 mph - N/A   Clear
2:15 AM 33.8 °F 29.6 °F 19.4 °F 56% 30.12 in 10.0 mi NNW 4.6 mph - N/A   Clear
2:35 AM 35.6 °F 31.7 °F 19.4 °F 52% 30.12 in 10.0 mi North 4.6 mph - N/A   Clear
2:55 AM 35.6 °F 29.9 °F 19.4 °F 52% 30.11 in 10.0 mi NNW 6.9 mph - N/A   Clear
3:15 AM 33.8 °F 28.6 °F 19.4 °F 56% 30.11 in 10.0 mi NNW 5.8 mph - N/A   Clear
3:35 AM 35.6 °F 29.9 °F 19.4 °F 52% 30.11 in 10.0 mi NNW 6.9 mph - N/A   Clear
3:55 AM 33.8 °F 29.6 °F 17.6 °F 52% 30.11 in 10.0 mi NNW 4.6 mph - N/A   Clear
4:15 AM 33.8 °F 27.7 °F 19.4 °F 56% 30.10 in 10.0 mi NNW 6.9 mph - N/A   Clear
4:35 AM 33.8 °F 28.6 °F 17.6 °F 52% 30.10 in 10.0 mi NNW 5.8 mph - N/A   Clear
4:55 AM 33.8 °F 27.7 °F 17.6 °F 52% 30.10 in 10.0 mi NNW 6.9 mph - N/A   Clear
5:15 AM 32.0 °F 24.8 °F 17.6 °F 55% 30.10 in 10.0 mi NNW 8.1 mph - N/A   Clear
5:35 AM 32.0 °F 26.4 °F 17.6 °F 55% 30.10 in 10.0 mi NNW 5.8 mph - N/A   Clear
5:55 AM 32.0 °F 27.5 °F 19.4 °F 60% 30.10 in 10.0 mi NNW 4.6 mph - N/A   Clear
6:15 AM 30.2 °F 25.4 °F 19.4 °F 64% 30.10 in 10.0 mi NNW 4.6 mph - N/A   Clear
6:35 AM 32.0 °F 25.6 °F 19.4 °F 60% 30.10 in 10.0 mi NNW 6.9 mph - N/A   Clear
6:55 AM 33.8 °F 26.4 °F 19.4 °F 56% 30.09 in 10.0 mi NNW 9.2 mph - N/A   Clear
7:15 AM 35.6 °F 28.0 °F 19.4 °F 52% 30.09 in 10.0 mi NNW 10.4 mph - N/A   Clear
7:35 AM 37.4 °F 29.8 °F 21.2 °F 52% 30.09 in 10.0 mi NNW 11.5 mph - N/A   Clear
7:55 AM 39.2 °F 32.5 °F 21.2 °F 49% 30.09 in 10.0 mi North 10.4 mph 16.1 mph N/A   Clear
8:15 AM 39.2 °F 32.5 °F 21.2 °F 49% 30.08 in 10.0 mi North 10.4 mph 17.3 mph N/A   Clear
8:35 AM 42.8 °F 35.4 °F 19.4 °F 39% 30.08 in 10.0 mi North 15.0 mph - N/A   Clear
8:55 AM 42.8 °F 37.0 °F 21.2 °F 42% 30.07 in 10.0 mi North 10.4 mph 18.4 mph N/A   Clear
9:15 AM 44.6 °F 39.2 °F 21.2 °F 39% 30.06 in 10.0 mi North 10.4 mph 17.3 mph N/A   Clear
9:35 AM 46.4 °F 40.7 °F 19.4 °F 34% 30.05 in 10.0 mi North 12.7 mph - N/A   Clear
9:55 AM 48.2 °F - 19.4 °F 32% 30.05 in 10.0 mi NNW 10.4 mph 17.3 mph N/A   Clear
10:15 AM 50.0 °F - 19.4 °F 30% 30.04 in 10.0 mi North 11.5 mph 16.1 mph N/A   Clear
10:35 AM 50.0 °F - 19.4 °F 30% 30.03 in 10.0 mi NNW 10.4 mph 19.6 mph N/A   Clear
10:55 AM 51.8 °F - 19.4 °F 28% 30.02 in 10.0 mi NNW 12.7 mph - N/A   Clear
11:15 AM 53.6 °F - 17.6 °F 24% 30.02 in 10.0 mi North 11.5 mph 19.6 mph N/A   Clear
11:35 AM 53.6 °F - 15.8 °F 22% 30.01 in 10.0 mi NNE 15.0 mph 24.2 mph N/A   Clear
11:55 AM 53.6 °F - 15.8 °F 22% 30.00 in 10.0 mi NE 16.1 mph 20.7 mph N/A   Clear
12:15 PM 55.4 °F - 15.8 °F 21% 29.99 in 10.0 mi North 13.8 mph 21.9 mph N/A   Clear
12:35 PM 55.4 °F - 15.8 °F 21% 29.98 in 10.0 mi NNE 16.1 mph 20.7 mph N/A   Clear
12:55 PM 55.4 °F - 14.0 °F 20% 29.97 in 10.0 mi North 13.8 mph 23.0 mph N/A   Clear
1:15 PM 55.4 °F - 15.8 °F 21% 29.95 in 10.0 mi NNW 12.7 mph 21.9 mph N/A   Clear
1:35 PM 57.2 °F - 15.8 °F 20% 29.95 in 10.0 mi North 10.4 mph 17.3 mph N/A   Clear
1:55 PM 57.2 °F - 14.0 °F 18% 29.94 in 10.0 mi NNE 11.5 mph 24.2 mph N/A   Clear
2:15 PM 57.2 °F - 12.2 °F 17% 29.93 in 10.0 mi NNE 16.1 mph 27.6 mph N/A   Clear
2:35 PM 57.2 °F - 12.2 °F 17% 29.91 in 10.0 mi North 15.0 mph 21.9 mph N/A   Clear
2:55 PM 57.2 °F - 12.2 °F 17% 29.91 in 10.0 mi North 10.4 mph 16.1 mph N/A   Clear
3:15 PM 57.2 °F - 12.2 °F 17% 29.90 in 10.0 mi NNW 12.7 mph 16.1 mph N/A   Clear
3:35 PM 59.0 °F - 12.2 °F 16% 29.89 in 10.0 mi North 16.1 mph 25.3 mph N/A   Clear
3:55 PM 59.0 °F - 12.2 °F 16% 29.88 in 10.0 mi NNE 15.0 mph 23.0 mph N/A   Clear
4:15 PM 60.8 °F - 12.2 °F 15% 29.87 in 10.0 mi NNE 10.4 mph 19.6 mph N/A   Clear
4:35 PM 60.8 °F - 12.2 °F 15% 29.87 in 10.0 mi North 13.8 mph 24.2 mph N/A   Clear
4:55 PM 59.0 °F - 12.2 °F 16% 29.86 in 10.0 mi North 15.0 mph 25.3 mph N/A   Clear
5:15 PM 59.0 °F - 12.2 °F 16% 29.86 in 10.0 mi North 16.1 mph 19.6 mph N/A   Clear
5:35 PM 57.2 °F - 10.4 °F 16% 29.85 in 10.0 mi North 17.3 mph 21.9 mph N/A   Clear
5:55 PM 57.2 °F - 10.4 °F 16% 29.85 in 10.0 mi North 15.0 mph 23.0 mph N/A   Clear
6:15 PM 57.2 °F - 12.2 °F 17% 29.85 in 10.0 mi North 18.4 mph 24.2 mph N/A   Clear
6:35 PM 57.2 °F - 12.2 °F 17% 29.84 in 10.0 mi North 13.8 mph 20.7 mph N/A   Clear
6:55 PM 55.4 °F - 14.0 °F 20% 29.84 in 10.0 mi North 15.0 mph 21.9 mph N/A   Clear
7:15 PM 55.4 °F - 12.2 °F 18% 29.85 in 10.0 mi North 13.8 mph 20.7 mph N/A   Clear
7:35 PM 53.6 °F - 12.2 °F 19% 29.85 in 10.0 mi North 12.7 mph 17.3 mph N/A   Clear
7:55 PM 51.8 °F - 12.2 °F 21% 29.86 in 10.0 mi NNE 10.4 mph - N/A   Clear
8:15 PM 51.8 °F - 12.2 °F 21% 29.86 in 10.0 mi NNE 9.2 mph - N/A   Clear
8:35 PM 50.0 °F - 12.2 °F 22% 29.85 in 10.0 mi North 8.1 mph - N/A   Clear
8:55 PM 48.2 °F - 10.4 °F 22% 29.85 in 10.0 mi NNW 4.6 mph - N/A   Clear
9:15 PM 46.4 °F 45.2 °F 15.8 °F 29% 29.84 in 10.0 mi NW 3.5 mph - N/A   Clear
9:35 PM 44.6 °F 42.2 °F 14.0 °F 29% 29.83 in 10.0 mi NNW 4.6 mph - N/A   Clear
9:55 PM 44.6 °F 43.1 °F 14.0 °F 29% 29.82 in 10.0 mi NW 3.5 mph - N/A   Clear
10:15 PM 44.6 °F 43.1 °F 14.0 °F 29% 29.82 in 10.0 mi NW 3.5 mph - N/A   Clear
10:35 PM 44.6 °F 42.2 °F 15.8 °F 31% 29.81 in 10.0 mi NNW 4.6 mph - N/A   Clear
10:55 PM 44.6 °F 42.2 °F 15.8 °F 31% 29.81 in 10.0 mi NW 4.6 mph - N/A   Clear
11:15 PM 44.6 °F 43.1 °F 17.6 °F 34% 29.79 in 10.0 mi NW 3.5 mph - N/A   Clear
11:35 PM 44.6 °F 41.4 °F 17.6 °F 34% 29.79 in 10.0 mi NNW 5.8 mph - N/A   Clear
11:55 PM 44.6 °F 40.7 °F 15.8 °F 31% 29.79 in 10.0 mi NNW 6.9 mph - N/A   Clear